Location: Montreal
(45.5000°N, 73.5833°W)
Time: 21:36:36
(UTC-04:00)

OTV 5 (USA 277) - Pass Details

Date: 11 October 2017
Orbit: 404 x 417 km, 43.0° (Epoch: 07 September)

Event Time Altitude Azimuth Distance (km) Brightness Sun altitude
Rises 18:53:01 0° 218° (SW) 2,345 ? -7.4°
Reaches altitude 10° 18:55:31 10° 200° (SSW) 1,485 ? -7.8°
Maximum altitude 18:57:58 19° 153° (SSE) 1,063 ? -8.2°
Enters shadow 19:00:17 11° 108° (ESE) 1,450 ? -8.6°
